Other Surface Observations
Issued by NWS Charleston, SC

Home | Current Version | Previous Version | Text Only | Print | Product List | Glossary On
Versions: 1 2 3 4 5 6 7 8 9 10 11 12 13 14 15 16 17 18 19 20 21 22 23 24 25 26 27 28 29 30 31 32 33 34 35 36 37 38 39 40 41 42 43 44 45 46 47 48 49 50
355
SXUS52 KCHS 140012
OSOCHS

MARINE OBSERVATIONS
NATIONAL WEATHER SERVICE CHARLESTON SC
700 PM EST SAT FEB 13 2016

...DOWNTOWN CHARLESTON AND HARBOR...

CITY           SKY/WX    TMP DP  RH WIND       PRES   REMARKS
WATERFRONT PRK   N/A     46  25  43 N9        30.15R

...LAKE MOULTRIE...

CITY           SKY/WX    TMP DP  RH WIND       PRES   REMARKS
PINOPOLIS        N/A     46  18  31 NW9       30.24R

...LAKE AND SUPPLEMENTAL COASTAL OBSERVATIONS...

STATION/POSITION TIME  TEMP    WIND        PRES    WAVE   SWELL
                       AIR SEA DIR/SP/G            HT/PER HT/PER/DIR
                 (UTC) (F)     (DEG/KT/KT) (MB)    (FT/S) (FT/S/D)
FORT PULASKI     2300   46 50              1025.8R
SAPELO ISLAND    2300   47      90/  3     1025.0S
WINYAH BAY       NOT AVBL
LAKE MURRAY      2300   42     350/  2/  4 1025.7R
ACE BASIN NERRS  NOT AVBL


...C-MAN AND BUOY OBSERVATIONS...

STATION/POSITION TIME  TEMP    WIND        PRES    WAVE   SWELL
                       AIR SEA DIR/SP/G            HT/PER HT/PER/DIR
                 (UTC) (F)     (DEG/KT/KT) (MB)    (FT/S) (FT/S/D)
BUOY 41004       2350   46 66   10/ 10/ 12 1026.3R   4/ 6   3/ 6
BUOY 41008       2350   47 53   60/  6/  8 1026.6R   2/ 6   2/ 60/ 6
FOLLY BEACH CMAN 0000   45     360/  8/ 10 1026.8R
CAPERS NS BUOY   2308   44     110/  6/ 10 1025.9R
FRIPP NS BUOY    2300   49     350/ 12/ 12 1024.7R
5E ST. MARYS GA  2321      56                N/A     2/ 5


STATION/POSITION TIME  TEMP    WIND        PRES    WAVE   SWELL
                       AIR SEA DIR/SP/G            HT/PER HT/PER/DIR
                 (UTC) (F)     (DEG/KT/KT) (MB)    (FT/S) (FT/S/D)
FRYING PAN BUOY  2300   42 61  340/ 14/ 19 1026.0R
BUOY 41025       2350   36 72  320/ 21/ 29 1025.9R   5/ 8   3/ 50/ 8
CAPE LOOKOUT NC  NOT AVBL
BUOY 41002       2350   51 68  340/ 21/ 27   N/A    10/ 8
BUOY 41010       2320   62 72              1022.8R
ST AUGUSTINE FL  0000   52 58   10/ 12/ 14 1026.0R

$$




USA.gov is the U.S. government's official web portal to all federal, state and local government web resources and services.